Latest Conditions
At L.F.Wade Int. Airport
Recorded at 5:55 pm
Partly Cloudy
Temp.: 
20°C/69°F
Humidity: 
61%
Wind: 
SE 13KT
or 15mph
UV Index: 
1
Island Observations
 
Observations
Friday, April 19, 2019

Observations are in local time and taken at least once an hour, or upon the start and end of specified events such as showers and thunderstorms.

Time Sky / Weather Wind Speed/Gusts Temp. R.H. Pressure
     knots (mph)  °C (°F)  %  mb / "Hg
 17:55 Partly Cloudy  SE 13/0 (15/0) 20(69) 61 1027 / 30.33
 16:55 Few Clouds  SE 13/0 (15/0) 21(70) 60 1027 / 30.32
 15:55 Partly Cloudy  SE 13/0 (15/0) 21(69) 62 1027 / 30.32
 14:55 Few Clouds  SE 13/0 (15/0) 21(70) 59 1027 / 30.32
 13:55 Partly Cloudy  SE 14/0 (16/0) 21(70) 62 1027 / 30.33
 12:55 Partly Cloudy  SE 13/0 (15/0) 21(70) 59 1027 / 30.34
 11:55 Few Clouds  SE 11/0 (13/0) 21(69) 57 1028 / 30.36
 10:55 Few Clouds  ESE 10/0 (12/0) 21(69) 58 1028 / 30.36
 09:55 Few Clouds  SE 10/0 (12/0) 20(68) 59 1027 / 30.34
 08:55 Few Clouds  ESE 11/0 (13/0) 19(67) 63 1027 / 30.33
 07:55 Few Clouds  ESE 11/0 (13/0) 18(65) 67 1027 / 30.32
 06:55 Few Clouds  ESE 11/0 (13/0) 18(64) 68 1026 / 30.30
 05:55 Few Clouds  ESE 10/0 (12/0) 18(64) 69 1026 / 30.30
 04:55 Partly Cloudy  ESE 11/0 (13/0) 18(64) 69 1026 / 30.29
 03:55 Few Clouds  E 11/0 (13/0) 17(63) 65 1026 / 30.30
 02:55 Few Clouds  E 11/0 (13/0) 18(64) 69 1026 / 30.31
 01:55 Few Clouds  E 13/0 (15/0) 17(63) 69 1027 / 30.33
 00:55 Few Clouds  E 10/0 (12/0) 18(64) 70 1027 / 30.34
 23:55 Few Clouds  E 12/0 (14/0) 18(64) 72 1027 / 30.34
 22:55 Partly Cloudy  E 11/0 (13/0) 18(64) 74 1027 / 30.33
 21:55 Mostly Cloudy  E 10/0 (12/0) 18(65) 71 1027 / 30.32
 20:55 Mostly Cloudy  E 11/0 (13/0) 18(65) 71 1026 / 30.31
 19:55 Mostly Cloudy  E 12/0 (14/0) 18(65) 72 1026 / 30.29
 18:55 Overcast  E 12/0 (14/0) 19(66) 72 1026 / 30.29
 17:55 Overcast  ENE 13/0 (15/0) 20(67) 70 1025 / 30.28
 16:55 Overcast  E 13/0 (15/0) 20(69) 70 1025 / 30.27
 15:55 Mostly Cloudy  ENE 11/0 (13/0) 21(70) 69 1025 / 30.27
 14:55 Mostly Cloudy  ENE 11/0 (13/0) 21(69) 70 1025 / 30.28
 13:55 Mostly Cloudy  ENE 13/0 (15/0) 21(70) 70 1025 / 30.27
 13:28 Partly Cloudy  ENE 14/0 (16/0) 20(69) 72 1025 / 30.27
 12:55 Mostly Cloudy  ENE 12/0 (14/0) 20(69) 72 1025 / 30.26
 12:08 Mostly Cloudy  ENE 11/0 (13/0) 20(69) 73 1025 / 30.26
 11:55 Mostly Cloudy  ENE 10/0 (12/0) 21(69) 75 1024 / 30.25
 10:55 Mostly Cloudy  ENE 9/0 (10/0) 21(69) 74 1024 / 30.25
 09:55 Partly Cloudy Showers NNE 9/0 (10/0) 21(69) 71 1024 / 30.24
 08:55 Mostly Cloudy Showers NNW 6/0 (7/0) 20(67) 72 1024 / 30.23
 07:55 Partly Cloudy  N 5/0 (6/0) 19(67) 70 1023 / 30.22
 06:55 Few Clouds  NNW 4/0 (5/0) 18(65) 75 1022 / 30.19
 05:55 Mostly Cloudy  N 4/0 (5/0) 18(65) 73 1022 / 30.17
 04:55 Mostly Cloudy  NNW 5/0 (6/0) 18(65) 73 1021 / 30.16
 03:55 Partly Cloudy  NW 4/0 (5/0) 18(65) 73 1021 / 30.15
 02:55 Mostly Cloudy  NNW 4/0 (5/0) 18(65) 72 1022 / 30.17
 01:55 Partly Cloudy  NNW 4/0 (5/0) 18(65) 71 1022 / 30.19
 00:55 Partly Cloudy  NNW 3/0 (3/0) 18(65) 72 1022 / 30.19
 23:55 Partly Cloudy  NNW 4/0 (5/0) 18(65) 70 1022 / 30.19
 22:55 Partly Cloudy  NNW 4/0 (5/0) 18(65) 69 1022 / 30.18
 21:55 Partly Cloudy  N 5/0 (6/0) 19(65) 67 1022 / 30.18
 20:55 Partly Cloudy  NNW 6/0 (7/0) 18(65) 66 1021 / 30.16
 19:55 Partly Cloudy  NNW 8/0 (9/0) 19(66) 66 1021 / 30.15
 18:55 Few Clouds  NNW 8/0 (9/0) 20(67) 61 1020 / 30.13
 17:55 Few Clouds  NNW 7/0 (8/0) 20(68) 58 1020 / 30.13
 16:55 Few Clouds  NW 7/0 (8/0) 20(68) 56 1020 / 30.13
 15:55 Few Clouds  NW 7/0 (8/0) 21(69) 58 1020 / 30.13
 14:55 Few Clouds  NNW 9/0 (10/0) 20(69) 58 1021 / 30.15
 13:55 Few Clouds  NNW 7/0 (8/0) 21(69) 57 1021 / 30.15
 12:55 Partly Cloudy  NNW 8/0 (9/0) 20(69) 55 1021 / 30.16
 11:55 Mostly Cloudy  N 9/0 (10/0) 20(68) 56 1021 / 30.16
 10:55 Mostly Cloudy  N 11/0 (13/0) 20(68) 60 1021 / 30.16
 09:55 Partly Cloudy  NNW 9/0 (10/0) 20(67) 57 1021 / 30.15
 08:55 Mostly Cloudy  NW 7/0 (8/0) 19(66) 61 1021 / 30.14
 07:55 Mostly Cloudy  NNW 6/0 (7/0) 18(64) 61 1020 / 30.13
 06:55 Mostly Cloudy  NNW 7/0 (8/0) 18(64) 64 1020 / 30.12
 05:55 Mostly Cloudy  NNW 9/0 (10/0) 18(64) 62 1019 / 30.10
 04:55 Mostly Cloudy  NW 8/0 (9/0) 18(64) 62 1019 / 30.09
 03:55 Mostly Cloudy  NW 7/0 (8/0) 18(64) 60 1019 / 30.10
 02:55 Mostly Cloudy  NNW 6/0 (7/0) 18(65) 62 1020 / 30.11
 01:55 Mostly Cloudy  N 5/0 (6/0) 19(65) 61 1020 / 30.12
 00:55 Partly Cloudy  NNW 4/0 (5/0) 18(65) 62 1020 / 30.13
 23:55 Partly Cloudy  NW 8/0 (9/0) 18(65) 61 1020 / 30.12
 22:55 Mostly Cloudy  NNW 8/0 (9/0) 19(66) 62 1020 / 30.12
 21:55 Mostly Cloudy  WNW 4/0 (5/0) 18(65) 62 1020 / 30.12
 20:55 Mostly Cloudy  NNW 9/0 (10/0) 19(66) 60 1020 / 30.11
 19:55 Partly Cloudy  NW 8/0 (9/0) 19(66) 62 1019 / 30.09
 18:55 Partly Cloudy  NW 10/0 (12/0) 20(67) 62 1019 / 30.09
 17:55 Few Clouds  NW 13/0 (15/0) 20(68) 61 1019 / 30.09
 16:55 Few Clouds  NW 14/0 (16/0) 21(69) 62 1018 / 30.07
 15:55 Few Clouds  NW 13/0 (15/0) 21(70) 66 1018 / 30.07
 14:55 Few Clouds  NW 16/0 (18/0) 21(70) 65 1018 / 30.07
 13:55 Few Clouds  NNW 13/0 (15/0) 22(71) 67 1018 / 30.07
 12:55 Partly Cloudy  NNW 13/0 (15/0) 22(71) 73 1018 / 30.07
 11:55 Partly Cloudy  NNW 13/0 (15/0) 22(71) 74 1018 / 30.06
 11:41 Mostly Cloudy  NW 15/0 (17/0) 22(71) 74 1018 / 30.06
 10:55 Few Clouds  WNW 12/0 (14/0) 23(73) 77 1017 / 30.04
 09:55 Partly Cloudy  WNW 12/0 (14/0) 21(71) 82 1017 / 30.03
 08:55 Partly Cloudy  WNW 11/0 (13/0) 21(70) 85 1016 / 30.01
 08:45 Mostly Cloudy  WNW 11/0 (13/0) 21(70) 86 1016 / 30.01
 08:04 Mostly Cloudy  W 10/0 (12/0) 20(68) 94 1016 / 30.00
 07:55 Mostly Cloudy Showers W 10/0 (12/0) 20(67) 94 1016 / 30.00
 07:40 Mostly Cloudy Showers W 14/0 (16/0) 19(67) 97 1016 / 29.99
 07:22 Overcast Showers W 16/0 (18/0) 19(67) 98 1016 / 29.99
 07:16 Overcast Showers W 16/0 (18/0) 19(66) 98 1016 / 29.99
 07:01 Overcast Showers W 17/0 (20/0) 19(66) 97 1015 / 29.97
 06:55 Overcast Showers W 21/31 (24/36) 19(66) 97 1015 / 29.96
 06:48 Overcast Showers W 22/0 (25/0) 19(67) 96 1015 / 29.97
 06:45 Overcast Showers SW 19/31 (22/36) 20(68) 94 1015 / 29.97
 06:41 Overcast Showers SW 19/0 (22/0) 22(71) 86 1014 / 29.95
 06:31 Mostly Cloudy Showers SW 17/0 (20/0) 23(73) 90 1014 / 29.94
 05:55 Mostly Cloudy  SW 14/0 (16/0) 22(71) 93 1014 / 29.94
 05:18 Mostly Cloudy  SSW 14/0 (16/0) 22(71) 92 1014 / 29.94
 04:55 Mostly Cloudy  SSW 14/0 (16/0) 22(71) 92 1014 / 29.94
Island AWOS